[[{"header":{"parameterUnit":"m.s-1","parameterCategory":1,"la1":30.2991,"la2":30.254,"lo1":-89.0895,"lo2":-89.0444,"dy":0.0017,"dx":0.0017,"nx":28,"ny":28,"refTime":"2024-04-10T21:00:00:Z","depth":0,"parameterNumber":2,"parameterNumberName":"U-component_of_WINDS"},"data":[0,0,0,0,0,0,0,0,0,0,0,0,0,0,0,0,0,0,0,0,0,0,0,0,0,0,0,0,0,0,0,0,0,0,0,0,0,0,0,0,0,0,0,0,0,0,0,0,0,0,0,0,0,0,0,0,0,0,-11.2587,-11.2586,0,-11.2532,-11.2531,-11.2531,-11.237,-11.2366,-11.2363,-11.2359,-11.2307,-11.2309,-11.2311,0,0,0,0,0,0,0,0,0,0,0,0,0,-11.2558,-11.2559,-11.2587,-11.2586,-11.2586,-11.2532,-11.2531,-11.2531,-11.237,-11.2366,-11.2362,-11.2358,-11.2307,-11.2309,-11.2311,0,0,0,0,0,0,0,0,0,0,0,0,0,-11.2544,-11.256,-11.2587,-11.2499,-11.2491,-11.2532,-11.2531,-11.253,-11.2371,-11.2366,-11.2361,-11.2356,-11.2306,-11.2309,-11.2312,-11.2436,0,0,-11.2321,-11.2322,0,0,0,0,0,0,0,0,-11.2545,-11.2545,-11.2513,-11.2505,-11.2496,-11.2452,-11.2502,-11.2499,-11.2373,-11.2417,-11.2359,-11.2353,-11.236,-11.2358,-11.236,-11.2433,-11.2431,-11.2321,-11.2323,-11.2324,-11.2325,0,0,0,0,0,0,0,-11.2546,-11.2547,-11.2565,-11.2512,-11.2502,-11.2464,-11.2456,-11.2501,-11.2419,-11.2412,-11.2401,-11.2396,-11.2355,-11.2357,-11.2357,-11.243,-11.2321,-11.2323,-11.2325,-11.2326,-11.2601,-11.2606,0,0,0,0,0,0,-11.2559,-11.2548,-11.2567,-11.2564,-11.2508,-11.2469,-11.246,-11.2472,-11.2418,-11.2405,-11.2401,-11.2389,-11.2355,-11.2354,-11.2355,-11.2492,-11.2324,-11.2326,-11.2328,-11.2595,-11.2602,-11.2608,0,0,0,0,0,0,-11.2559,-11.2562,-11.2569,-11.2553,-11.2551,-11.2475,-11.2489,-11.2473,-11.2475,-11.2409,-11.2394,-11.2418,-11.2351,-11.2351,-11.2416,-11.2489,-11.2328,-11.233,-11.2589,-11.2598,-11.2605,-11.2772,0,0,0,0,0,0,-11.2559,-11.2563,-11.2608,-11.2555,-11.2552,-11.263,-11.2494,-11.2476,-11.248,-11.2464,-11.2421,-11.2409,-11.2347,-11.2413,-11.2419,-11.249,-11.2333,-11.2582,-11.2593,-11.2603,-11.2759,-11.2785,-11.2807,0,0,0,0,0,-11.2558,-11.2658,-11.2611,-11.2614,-11.2606,-11.2634,-11.2633,-11.2557,-11.2487,-11.2532,-11.2489,-11.2411,-11.2482,-11.2421,-11.2426,-11.2499,-11.2577,-11.259,-11.2602,-11.2748,-11.278,-11.2806,0,0,0,0,0,0,-11.2722,-11.2649,-11.2596,-11.2681,-11.2665,-11.2607,-11.266,-11.2593,-11.2597,-11.2582,-11.2491,-11.2483,-11.256,-11.2537,-11.2471,-11.2616,-11.2516,-11.2531,-11.2626,-11.2655,-11.2678,-11.2679,-11.2335,0,0,0,0,0,-11.2769,-11.2796,-11.2732,-11.2813,-11.2808,-11.2737,-11.2746,-11.269,-11.267,-11.2662,-11.2624,-11.2609,-11.2627,-11.2641,-11.2655,-11.2758,-11.2745,-11.2812,-11.2836,-11.2855,-11.2866,-11.2916,-11.2944,-11.2649,-11.2649,-11.2649,0,0,-11.2863,-11.2827,-11.285,-11.2845,-11.2826,-11.2856,-11.2731,-11.277,-11.2791,-11.2668,-11.2724,-11.2699,-11.2676,-11.2759,-11.2795,-11.2743,-11.2946,-11.2871,-11.2888,-11.2887,-11.2932,-11.296,-11.2985,-11.2658,-11.2656,-11.2655,0,0,-11.305,-11.3028,-11.3091,-11.3075,-11.3047,-11.2999,-11.3016,-11.2968,-11.2944,-11.3001,-11.2908,-11.2936,-11.297,-11.2956,-11.2954,-11.3142,-11.3068,-11.315,-11.327,-11.332,-11.3343,-11.3363,-11.3425,-11.3449,-11.3163,-11.3163,-11.3163,0,-11.3171,-11.3212,-11.3133,-11.3176,-11.3176,-11.3067,-11.3131,-11.312,-11.3099,-11.3102,-11.3046,-11.3086,-11.3064,-11.3141,-11.3187,-11.3191,-11.3205,-11.315,-11.3346,-11.3365,-11.3383,-11.3441,-11.3465,-11.3173,-11.3172,-11.3171,-11.317,0,-11.336,-11.3391,-11.3447,-11.3426,-11.3434,-11.3489,-11.3418,-11.3437,-11.3382,-11.3341,-11.34,-11.3371,-11.3375,-11.3391,-11.3339,-11.3462,-11.343,-11.3363,-11.3258,-11.3422,-11.3474,-11.3496,-11.3186,-11.3183,-11.318,-11.3178,0,0,-11.3641,-11.358,-11.36,-11.3589,-11.3553,-11.3575,-11.3627,-11.363,-11.3645,-11.3638,-11.3675,-11.3709,-11.3646,-11.3644,-11.359,-11.3636,-11.378,-11.3561,-11.3559,-11.3597,-11.3909,-11.3955,-11.3982,-11.3735,-11.3739,-11.3742,-11.3909,0,-11.3813,-11.3891,-11.3823,-11.3915,-11.3941,-11.3841,-11.3885,-11.3868,-11.3834,-11.3852,-11.3815,-11.3838,-11.3755,-11.3752,-11.3794,-11.3754,-11.384,-11.3742,-11.3767,-11.3769,-11.3767,-11.401,-11.4059,-11.4217,-11.393,-11.3933,-11.3936,0,-11.4021,-11.402,-11.4114,-11.4071,-11.4079,-11.4119,-11.4116,-11.4137,-11.4117,-11.4089,-11.4089,-11.4023,-11.4071,-11.3977,-11.404,-11.3975,-11.3983,-11.3966,-11.397,-11.3963,-11.3856,-11.4004,-11.4267,-11.4288,-11.3969,-11.3966,-11.3964,0,-11.4209,-11.4233,-11.429,-11.4285,-11.4239,-11.4269,-11.4251,-11.4226,-11.4233,-11.4233,-11.4235,-11.4243,-11.4245,-11.4253,-11.4192,-11.4129,-11.4262,-11.4163,-11.4238,-11.4239,-11.4263,-11.4261,-11.4524,-11.4282,-11.4281,-11.4281,-11.428,0,-11.4403,-11.4463,-11.4373,-11.4408,-11.4473,-11.4398,-11.4465,-11.4437,-11.4417,-11.4445,-11.4364,-11.4393,-11.4314,-11.4335,-11.429,-11.4347,-11.4351,-11.4328,-11.4313,-11.433,-11.4333,-11.4328,-11.4313,-11.4287,-11.4286,-11.4285,-11.4283,0,-11.4619,-11.4563,-11.4618,-11.4571,-11.456,-11.461,-11.4569,-11.46,-11.4562,-11.46,-11.4605,-11.4545,-11.4566,-11.4508,-11.4522,-11.4491,-11.4572,-11.4544,-11.4577,-11.4566,-11.4641,-11.4632,-11.4904,-11.4934,-11.468,-11.4683,-11.4685,0,-11.4743,-11.4786,-11.4743,-11.4755,-11.4741,-11.4764,-11.4769,-11.47,-11.4709,-11.4692,-11.4725,-11.474,-11.4746,-11.4786,-11.4744,-11.4754,-11.4721,-11.4817,-11.4722,-11.4737,-11.4715,-11.471,-11.4712,-11.4833,-11.4836,-11.4839,-11.4841,0,-11.4966,-11.4936,-11.4946,-11.4948,-11.4957,-11.4956,-11.4949,-11.4965,-11.489,-11.4906,-11.4926,-11.4932,-11.4945,-11.496,-11.4961,-11.4945,-11.488,-11.4873,-11.4889,-11.4903,-11.4917,-11.4904,-11.4623,-11.4864,-11.4862,-11.486,-11.4859,-11.4858,-11.5134,-11.5167,-11.5141,-11.5156,-11.5144,-11.514,-11.5166,-11.5132,-11.5146,-11.5149,-11.511,-11.5138,-11.512,-11.5114,-11.5105,-11.5127,-11.5083,-11.5109,-11.5114,-11.5119,-11.5129,-11.4921,-11.5128,-11.5127,-11.5127,-11.5126,-11.5126,0,-11.5347,-11.5326,-11.5341,-11.5333,-11.5346,-11.5286,-11.5276,-11.529,-11.5315,-11.5303,-11.5312,-11.5335,-11.535,-11.5312,-11.5321,-11.5346,-11.5317,-11.535,-11.5343,-11.534,-11.517,-11.5152,-11.5374,-11.5374,-11.5373,-11.5373,-11.5373,-11.5373,-11.5458,-11.5509,-11.5477,-11.5523,-11.5502,-11.5527,-11.5526,-11.5522,-11.5512,-11.5541,-11.5552,-11.5527,-11.5505,-11.5512,-11.5523,-11.5512,-11.5516,-11.5559,-11.5537,-11.5377,-11.5353,-11.5329,-11.5311,-11.5563,-11.5563,-11.5704,-11.5705,-11.5706]},{"header":{"parameterUnit":"m.s-1","parameterCategory":1,"la1":30.2991,"la2":30.254,"lo1":-89.0895,"lo2":-89.0444,"dy":0.0017,"dx":0.0017,"nx":28,"ny":28,"refTime":"2024-04-10T21:00:00:Z","depth":0,"parameterNumber":3,"parameterNumberName":"V-component_of_WINDS"},"data":[0,0,0,0,0,0,0,0,0,0,0,0,0,0,0,0,0,0,0,0,0,0,0,0,0,0,0,0,0,0,0,0,0,0,0,0,0,0,0,0,0,0,0,0,0,0,0,0,0,0,0,0,0,0,0,0,0,0,4.6062,4.6062,0,4.6078,4.6078,4.6078,4.599,4.5987,4.5985,4.5982,4.6,4.6003,4.6006,0,0,0,0,0,0,0,0,0,0,0,0,0,4.5956,4.5959,4.6062,4.6062,4.6062,4.6078,4.6078,4.6078,4.599,4.5987,4.5984,4.5981,4.5999,4.6003,4.6006,0,0,0,0,0,0,0,0,0,0,0,0,0,4.599,4.596,4.6062,4.602,4.6017,4.6078,4.6078,4.6078,4.5991,4.5987,4.5983,4.5979,4.5998,4.6002,4.6006,4.6109,0,0,4.6019,4.6021,0,0,0,0,0,0,0,0,4.5989,4.5994,4.6026,4.6023,4.6019,4.6028,4.6047,4.6089,4.5992,4.6001,4.5982,4.5978,4.6013,4.6015,4.6027,4.611,4.6111,4.602,4.6022,4.6024,4.6025,0,0,0,0,0,0,0,4.5986,4.5993,4.6068,4.6027,4.6023,4.6001,4.6002,4.6055,4.6028,4.6,4.5993,4.5996,4.601,4.6023,4.6027,4.6111,4.602,4.6024,4.6026,4.6028,4.6279,4.6282,0,0,0,0,0,0,4.5989,4.5992,4.6068,4.6069,4.5994,4.6006,4.6007,4.6029,4.6027,4.6023,4.5999,4.5992,4.6017,4.6022,4.6027,4.6147,4.6024,4.6028,4.6031,4.6275,4.6279,4.6284,0,0,0,0,0,0,4.5987,4.5997,4.6067,4.6029,4.6036,4.6012,4.6038,4.6031,4.6044,4.6027,4.6022,4.6018,4.6015,4.6021,4.6089,4.6146,4.603,4.6034,4.627,4.6276,4.6282,4.6388,0,0,0,0,0,0,4.5985,4.5997,4.6036,4.603,4.6038,4.6129,4.6041,4.6034,4.6051,4.6042,4.6042,4.6039,4.6012,4.6083,4.6093,4.615,4.6037,4.6264,4.6273,4.628,4.6379,4.6397,4.6412,0,0,0,0,0,4.5981,4.6065,4.6038,4.6048,4.6086,4.6133,4.6137,4.6104,4.6056,4.6095,4.6084,4.6039,4.6138,4.6091,4.6102,4.6161,4.6261,4.627,4.6279,4.6372,4.6394,4.6412,0,0,0,0,0,0,4.6079,4.6064,4.6033,4.6118,4.6127,4.6118,4.6166,4.6128,4.6152,4.6142,4.61,4.6101,4.6177,4.6175,4.6123,4.6259,4.6191,4.6203,4.6258,4.6278,4.6295,4.6294,4.6041,0,0,0,0,0,4.611,4.6149,4.6134,4.621,4.6216,4.619,4.6209,4.6183,4.6191,4.6195,4.6188,4.6199,4.6232,4.6255,4.6284,4.6378,4.6377,4.6424,4.644,4.6454,4.6465,4.6515,4.6535,4.6314,4.6314,4.6314,0,0,4.6176,4.6172,4.6199,4.6229,4.6233,4.6275,4.6194,4.6241,4.6272,4.6202,4.6266,4.6262,4.627,4.6352,4.6387,4.6353,4.6526,4.6466,4.6477,4.648,4.6526,4.6547,4.6566,4.632,4.6319,4.6318,0,0,4.6316,4.6317,4.638,4.6386,4.6392,4.6374,4.639,4.6386,4.638,4.6443,4.6392,4.6427,4.6486,4.6494,4.6506,4.6648,4.6608,4.6659,4.6745,4.6794,4.6811,4.6827,4.6878,4.6897,4.6669,4.667,4.667,0,4.6397,4.6457,4.6418,4.6469,4.6484,4.6421,4.6485,4.6492,4.6509,4.6521,4.6481,4.6553,4.6554,4.6637,4.6671,4.6683,4.6699,4.6659,4.6812,4.6827,4.684,4.6889,4.6909,4.6676,4.6675,4.6674,4.6674,0,4.6556,4.6598,4.6649,4.6665,4.6685,4.6743,4.6713,4.6738,4.671,4.6696,4.6761,4.676,4.6789,4.6806,4.6779,4.6885,4.6864,4.6819,4.6749,4.6868,4.6913,4.6932,4.6685,4.6683,4.6681,4.6679,0,0,4.6761,4.6753,4.6773,4.6779,4.6781,4.6814,4.6868,4.6895,4.6917,4.6931,4.6976,4.7026,4.6984,4.6997,4.697,4.7013,4.7127,4.6963,4.6963,4.6994,4.7244,4.7279,4.7301,4.7099,4.7103,4.7105,4.7244,0,4.6898,4.699,4.6956,4.7051,4.7089,4.7029,4.7077,4.7083,4.7072,4.7103,4.709,4.7127,4.7069,4.7076,4.7116,4.7105,4.7177,4.7094,4.7142,4.7144,4.7143,4.7324,4.7361,4.7492,4.7261,4.7264,4.7266,0,4.7072,4.7091,4.7189,4.7184,4.7199,4.7242,4.7264,4.7294,4.73,4.7289,4.7303,4.7267,4.732,4.725,4.7323,4.7268,4.7285,4.7282,4.7286,4.7291,4.7213,4.7335,4.7533,4.7553,4.7293,4.7291,4.7289,0,4.7213,4.7263,4.7328,4.7335,4.733,4.7362,4.7362,4.7364,4.7382,4.7401,4.7412,4.7437,4.7452,4.7472,4.7444,4.7395,4.7522,4.7449,4.7514,4.7515,4.7545,4.7544,4.775,4.7554,4.7554,4.7554,4.7553,0,4.7371,4.7434,4.7391,4.7431,4.7499,4.7459,4.7528,4.7521,4.7524,4.7562,4.7511,4.7548,4.7508,4.7541,4.7519,4.7583,4.759,4.7583,4.7577,4.7588,4.7589,4.76,4.7591,4.7559,4.7558,4.7557,4.7556,0,4.7541,4.7514,4.7581,4.757,4.7569,4.762,4.7611,4.7648,4.7632,4.7681,4.769,4.7666,4.7702,4.7675,4.7712,4.7697,4.7782,4.7762,4.778,4.7775,4.7843,4.7837,4.8064,4.8092,4.7877,4.7879,4.7881,0,4.7645,4.7691,4.7685,4.7706,4.7709,4.7744,4.7762,4.7724,4.7744,4.7754,4.7791,4.7822,4.7846,4.7908,4.7894,4.7921,4.7902,4.798,4.7906,4.7917,4.7905,4.7903,4.7908,4.7996,4.7998,4.8,4.8002,0,4.7832,4.7816,4.7843,4.7866,4.7888,4.7904,4.7917,4.7937,4.7898,4.7924,4.7961,4.7979,4.8015,4.8048,4.807,4.807,4.8031,4.8025,4.8042,4.8055,4.8064,4.8061,4.7822,4.802,4.8018,4.8017,4.8016,4.8015,4.7973,4.8011,4.8012,4.8044,4.8049,4.8061,4.8095,4.8083,4.8112,4.8138,4.8114,4.8158,4.8162,4.8187,4.8192,4.8227,4.8195,4.8219,4.8225,4.8233,4.8243,4.8057,4.823,4.823,4.8229,4.8229,4.8228,0,4.8158,4.8156,4.8185,4.8203,4.8228,4.8186,4.8197,4.8221,4.826,4.8267,4.8291,4.8332,4.8364,4.8351,4.8379,4.8409,4.8391,4.8417,4.8416,4.8417,4.8269,4.8252,4.8431,4.8431,4.8431,4.8431,4.8431,4.8431,4.8258,4.8321,4.8305,4.837,4.8367,4.8408,4.8418,4.843,4.8435,4.8483,4.8508,4.8499,4.8499,4.8526,4.8553,4.8548,4.8561,4.8595,4.8584,4.8447,4.8427,4.8408,4.8392,4.8598,4.8598,4.8729,4.873,4.8731]}]]